User: anonymous   Login
Location: Unspecified
(0.0000°N, 0.0000°E)
Time: 22:53:35
(UTC+00:00)
Language:

LQSAT - Orbit

View from above orbital plane
View from above orbital plane
View from above satellite
View from above satellite

Ground track
Ground track

The orbit data is extracted from the following two-line orbital elements,

1 40958U 15057A   17113.83495316 +.00000040 +00000-0 +13993-4 0  9999
2 40958 097.9796 190.0965 0016970 237.8950 122.0587 14.72956775083113
Epoch (UTC): 23 April 2017 20:02:19
Eccentricity: 0.0016970
inclination: 97.9796°
perigee height: 640 km
apogee height: 663 km
right ascension of ascending node: 190.0965°
argument of perigee: 237.8950°
revolutions per day: 14.72956775
mean anomaly at epoch: 122.0587°
orbit number at epoch: 8311

The dashed part of the orbit path shows where the satellite is in the earth's shadow,  

DLR